Weather History for Yohin, NT

Change the Weather History Date:

Sunday, February 10, 2013

  Actual Average Record
Temperature  
Mean Temperature 27 °F -  
Max Temperature 51 °F - - ()
Min Temperature 3 °F - - ()
Degree Days  
Heating Degree Days 38    
Moisture  
Dew Point 15 °F    
Average Humidity 65    
Maximum Humidity 93    
Minimum Humidity 26    
Precipitation  
Precipitation 0.00 in - - ()
Sea Level Pressure  
Sea Level Pressure 29.54 in    
Wind  
Wind Speed 3 mph ()    
Max Wind Speed 8 mph    
Max Gust Speed 22 mph    
T = Trace of Precipitation, MM = Missing Value Source: Averaged Metar Reports

Daily Weather History Graph

Daily Weather History Graph

Search for Another Location

Airport:

Trip Planner

Search our weather history database for the weather conditions in past years. The results will help you decide how hot, cold, wet, or windy it might be!

Date:

Astronomy

Feb. 10, 2013 Rise Set
Actual Time 9:10 AM MST 5:48 PM MST
Civil Twilight 8:23 AM MST 6:35 PM MST
Nautical Twilight 7:32 AM MST 7:27 PM MST
Astronomical Twilight 6:42 AM MST 8:17 PM MST
Moon 8:39 AM MST (2/10) 7:17 PM MST (2/10)
Length of Visible Light 10h 12m
Length of Day
8h 38m
New Moon, 0% of the Moon is Illuminated
Feb 10
New Moon
Feb 17
First Quarter
Feb 25
Full
Mar 4
Last Quarter
Mar 11
New

Hourly Weather History & Observations

Time (MST) Temp. Windchill Dew Point Humidity Pressure Visibility Wind Dir Wind Speed Gust Speed Precip Events Conditions
12:00 AM 7.9 °F - 4.8 °F 87% 29.94 in - South 1.2 mph - N/A   Unknown
1:00 AM 9.7 °F 3.2 °F 5.7 °F 84% 29.89 in - SSW 3.5 mph - N/A   Unknown
2:00 AM 10.0 °F - 5.9 °F 83% 29.86 in - SSE 1.2 mph - N/A   Unknown
3:00 AM 7.3 °F - 4.3 °F 87% 29.81 in - NW 1.2 mph - N/A   Unknown
4:00 AM 6.3 °F - 3.2 °F 87% 29.76 in - Calm Calm - N/A   Unknown
5:00 AM 3 °F - 0 °F 83% 29.72 in - SSW 1.2 mph - -  
5:00 AM 3.4 °F - 0.3 °F 87% 29.72 in - SSW 1.2 mph - N/A   Unknown
6:00 AM 4.8 °F - 2.3 °F 89% 29.68 in - East 2.3 mph - N/A   Unknown
7:00 AM 8.6 °F 2.0 °F 6.6 °F 92% 29.62 in - North 3.5 mph - N/A   Unknown
8:00 AM 7.0 °F - 4.1 °F 88% 29.59 in - North 2.3 mph - N/A   Unknown
9:00 AM 9.3 °F - 6.8 °F 89% 29.55 in - NNE 2.3 mph - N/A   Unknown
10:00 AM 10.9 °F - 9.0 °F 92% 29.52 in - NW 2.3 mph - N/A   Unknown
11:00 AM 16 °F - 14 °F 90% 29.47 in - WNW 3.5 mph - -  
11:00 AM 16.2 °F 10.6 °F 14.4 °F 93% 29.47 in - WNW 3.5 mph - N/A   Unknown
12:00 PM 28.8 °F 25.0 °F 23.4 °F 80% 29.45 in - NE 3.5 mph - N/A   Unknown
1:00 PM 48.0 °F - 29.1 °F 48% 29.41 in - WSW 5.8 mph 18.4 mph N/A   Unknown
2:00 PM 47.8 °F - 27.5 °F 45% 29.39 in - WSW 8.1 mph 19.6 mph N/A   Unknown
3:00 PM 51.3 °F - 24.8 °F 36% 29.39 in - West 4.6 mph - N/A   Unknown
4:00 PM 50.0 °F - 24.8 °F 37% 29.37 in - West 4.6 mph - N/A   Unknown
5:00 PM 48 °F - 24 °F 26% 29.37 in - West 6.9 mph - -  
5:00 PM 48.4 °F - 23.7 °F 38% 29.37 in - West 6.9 mph 19.6 mph N/A   Unknown
6:00 PM 47.5 °F - 23.2 °F 38% 29.38 in - West 4.6 mph - N/A   Unknown
7:00 PM 46.6 °F - 22.8 °F 39% 29.39 in - WNW 4.6 mph - N/A   Unknown
8:00 PM 45.5 °F 41.3 °F 23.5 °F 42% 29.40 in - West 8.1 mph 19.6 mph N/A   Unknown
9:00 PM 45.0 °F 41.2 °F 22.6 °F 41% 29.40 in - WSW 6.9 mph 19.6 mph N/A   Unknown
10:00 PM 44.6 °F 40.7 °F 22.5 °F 42% 29.39 in - West 6.9 mph 21.9 mph N/A   Unknown
11:00 PM 43 °F - 23 °F 31% 29.36 in - SW 5.8 mph - -  
11:00 PM 43.2 °F 39.7 °F 22.6 °F 44% 29.36 in - SW 5.8 mph 18.4 mph N/A   Unknown